TJS-22

Last updated on Sat Aug 15 2026 00:03:03 GMT+0000 (Coordinated Universal Time)

1 66990U 25290A 26226.58114279 -.00000023 00000+0 00000+0 0 9997 2 66990 1.3901 287.4939 0003518 317.4346 353.7638 1.00273558 2607
UTC large
Height (km)
Speed (km/s)
/
Latitude / Longitude
Inclination (degrees)
Orbital Period (minutes)
Azimuth
Elevation
Range (km)
Doppler Factor

Next 0 passes for location: London (51.5072 / 0.1276)

No passes found over London.
TJS-22